This is the latest recevied weather packets stored in our database for station/object KI6PPU. If no packets are shown the sender has not sent any weather packets the latest 10 day(s).
| Time | Temp. | Humidity | Pressure | Rain* | Wind** | Luminosity | Snow |
|---|---|---|---|---|---|---|---|
| 1777857300 | 17.78° C | 67% | 1014.1 hPa | 0 mm | - | 98 W/m² | - |
| 1777856996 | 17.78° C | 68% | 1014.2 hPa | 0 mm | - | 131 W/m² | - |
| 1777856692 | 17.78° C | 65% | 1014.3 hPa | 0 mm | - | 132 W/m² | - |
| 1777856388 | 17.78° C | 66% | 1014.3 hPa | 0 mm | - | 144 W/m² | - |
| 1777856085 | 17.78° C | 66% | 1014.4 hPa | 0 mm | - | 166 W/m² | - |
| 1777855783 | 17.78° C | 69% | 1014.3 hPa | 0 mm | - | 194 W/m² | - |
| 1777855480 | 17.22° C | 69% | 1014.5 hPa | 0 mm | - | 345 W/m² | - |
| 1777855177 | 16.67° C | 70% | 1014.3 hPa | 0 mm | - | 171 W/m² | - |
| 1777854873 | 16.67° C | 71% | 1014.4 hPa | 0 mm | - | 188 W/m² | - |
| 1777854570 | 16.67° C | 70% | 1014.4 hPa | 0 mm | - | 110 W/m² | - |
| 1777854267 | 16.67° C | 70% | 1014.3 hPa | 0 mm | - | 86 W/m² | - |
| 1777853965 | 16.67° C | 69% | 1014.4 hPa | 0 mm | - | 119 W/m² | - |
| 1777853662 | 17.22° C | 69% | 1014.5 hPa | 0 mm | - | 115 W/m² | - |
| 1777853358 | 17.22° C | 70% | 1014.2 hPa | 0 mm | - | 138 W/m² | - |
| 1777853056 | 17.22° C | 70% | 1014.3 hPa | 0 mm | - | 122 W/m² | - |
| 1777852753 | 17.22° C | 71% | 1014.1 hPa | 0 mm | - | 122 W/m² | - |
| 1777852451 | 17.22° C | 71% | 1014.3 hPa | 0 mm | - | 131 W/m² | - |
| 1777852148 | 17.22° C | 70% | 1014.3 hPa | 0 mm | - | 150 W/m² | - |
| 1777851846 | 17.22° C | 70% | 1014.3 hPa | 0 mm | - | 161 W/m² | - |
| 1777851543 | 17.22° C | 71% | 1014.4 hPa | 0 mm | - | 186 W/m² | - |
| 1777851239 | 16.67° C | 71% | 1014.6 hPa | 0 mm | - | 202 W/m² | - |
| 1777850935 | 17.22° C | 70% | 1014.7 hPa | 0 mm | - | 209 W/m² | - |
| 1777850633 | 16.67° C | 70% | 1014.7 hPa | 0 mm | - | 201 W/m² | - |
| 1777850331 | 16.67° C | 70% | 1014.6 hPa | 0 mm | - | 188 W/m² | - |
| 1777850027 | 16.67° C | 72% | 1014.8 hPa | 0 mm | - | 171 W/m² | - |
* Rain latest hour (hover to see other rain measurements)
** Current wind speed in m/s (hover to see current wind gust speed)